Terug naar catalogus

CZ-3B R/B

ActiefHEO
NORAD 62486·ROCKET BODY·🇨🇳 China

Gelanceerd Jan 6, 2025 vanaf Xichang Satellite Launch Center

Loading…

Volgende Passages (komende 24 uur)

TLE

VersSource: Space-Track

Epoch: Sep 14, 2026, 11:16 UTC

1 62486U 25002B   26257.46997255  .00443411  23159-7  96785-3 0  9996
2 62486  28.4701 319.8245 4671852 182.3894 174.2439  6.40037314 16533

Volg CZ-3B R/B in realtime met AllMySat

Download on the App Store